Weather in Kazachja Lopan

Ukraine / Kharkiv Region     50°20′11″N   36°10′43″E
temp.,
°C
wind,
m/s
gust,
m/s
humid.,
%
clouds,
%
prec.,
mm/h
press.,
hPa
HPBL,
m
7 may, fri
fri700:00+8nnw4893100 3.8 1012434
03:00+8nnw369367 4.8 1013404
06:00+7nw249599 0.0 1014136
09:00+12wnw23715 0.0 1015668
12:00+15wsw3449100 0.1 10151988
15:00+17wsw3441100 0.1 10152322
18:00+16ssw355320 0.0 1014741
21:00+11sse48637 0.0 1014125
8 may, sat
sat800:00+11se61463100 0.0 1013322
03:00+12sse71658100 0.0 1011522
06:00+11sse61585100 0.7 1010540
09:00+12s81682100 0.9 1008746
12:00+13ssw81493100 2.8 10071028
15:00+12wsw5994100 8.1 1008692
18:00+11w91287100 0.5 1010772
21:00+8w3989100 0.5 1011548
9 may, sun
sun900:00+6wnw61187100 0.0 1013701
03:00+5nw61084100 0.1 1015932
06:00+5nw6118382 0.0 1015738
09:00+7nw7106615 0.0 1017946
12:00+11nnw8105548 0.0 10181864
15:00+12nnw8104999 0.1 10192212
18:00+11nnw6105814 0.1 10211778
21:00+6nnw38765 0.1 1024167
10 may, mon
mon1000:00+5nw410810 0.0 1024187
03:00+4nnw512752 0.0 1025269
06:00+4nnw513720 0.0 1026354
09:00+10n8135684 0.0 10251481
12:00+13n101347100 0.0 10231658
15:00+13n101554100 0.0 10221671
18:00+11n91559100 0.0 1021937
21:00+11nne91868100 0.0 1021721
11 may, tue
tue1100:00+10nne81777100 0.0 1021662
03:00+10nne81583100 0.0 1020516
06:00+9nne7159199 0.0 1019441
09:00+12nne8168221 0.0 1019658
12:00+14e101578100 0.1 10191345
15:00+14e912585 0.2 10211576
18:00+12e712685 0.0 10231458
21:00+7ese4887100 0.0 1024318